Regional Weather Roundup
Issued by NWS

Home | Current Version | Previous Version | Graphics & Text | Print | Product List | Glossary On
Versions: 1 2 3 4 5 6 7 8 9 10 11 12 13 14 15 16 17 18 19 20 21 22 23 24 25 26 27 28 29 30 31 32 33 34 35 36 37 38 39 40 41 42 43 44 45 46 47 48 49 50
000
ASUS43 KIND 190859
RWRIN

WEATHER ROUNDUP FOR INDIANA
NATIONAL WEATHER SERVICE INDIANAPOLIS IN
500 AM EDT SAT APR 19 2014

NOTE: "FAIR" INDICATES FEW OR NO CLOUDS BELOW 12,000 FEET WITH NO
SIGNIFICANT WEATHER AND/OR OBSTRUCTIONS TO VISIBILITY.

* - STATION DOES NOT REPORT WEATHER SUCH AS PRECIPITATION OR FOG.

+ - STATION NOT QUALITY CONTROLLED BY THE NATIONAL WEATHER SERVICE.
    USE DATA WITH CAUTION...ESPECIALLY DEWPOINT AND RELATIVE
    HUMIDITY OBSERVATIONS.

INZ001>003-010>013-019-020-191000-
NORTHWEST INDIANA

CITY           SKY/WX    TMP DP  RH WIND       PRES   REMARKS
VALPARAISO     CLEAR     32  26  78 NE6       30.34S WCI  26

$$

LMZ046-743>745-191000-
SOUTHERN LAKE MICHIGAN

STATION/POSITION TIME  TEMP WIND        PRES
                       AIR  DIR/SP/G
                 (UTC) (F)  (DEG/KT/KT) (MB)
MICHIGAN CITY    0800   38   50/  5/  6   N/A

$$

INZ004-005-014>016-021>024-191000-
NORTH CENTRAL INDIANA

CITY           SKY/WX    TMP DP  RH WIND       PRES   REMARKS
GOSHEN         CLEAR     38  31  76 NE8       30.33S
SOUTH BEND     CLEAR     35  27  72 NE3       30.35S

$$

INZ006>009-017-018-025>027-191000-
NORTHEAST INDIANA

CITY           SKY/WX    TMP DP  RH WIND       PRES   REMARKS
ANGOLA *+      CLEAR     37  34  87 NE5       30.34R
FORT WAYNE     CLEAR     39  32  76 NE7       30.33R

$$

INZ028-029-035-036-043>045-051>053-191000-
WEST CENTRAL INDIANA

CITY           SKY/WX    TMP DP  RH WIND       PRES   REMARKS
GREENCASTLE +  CLEAR     41  34  75 NE7       30.29S
LAFAYETTE      CLEAR     36  26  67 NE5       30.31S
TERRE HAUTE    CLEAR     44  35  70 NE6       30.28S

$$

INZ030>032-037>040-046>048-054>057-064-065-191000-
CENTRAL INDIANA

CITY           SKY/WX    TMP DP  RH WIND       PRES   REMARKS
INDIANAPOLIS   CLEAR     42  34  73 NE8       30.28S
-EAGLE CREEK   CLEAR     41  33  73 N3        30.28S
KOKOMO *+      CLEAR     37  30  75 NE7       30.31S
MT COMFORT *+  CLEAR     39  37  93 N7        30.29R
SHELBYVILLE    CLEAR     46  36  68 NE7       30.27R

$$

INZ033-034-041-042-049-050-058-059-191000-
EAST CENTRAL INDIANA

CITY           SKY/WX    TMP DP  RH WIND       PRES   REMARKS
MUNCIE         CLEAR     41  34  76 NE8       30.29R

$$

INZ060-061-067>069-081>083-085>088-191000-
SOUTHWEST INDIANA

CITY           SKY/WX    TMP DP  RH WIND       PRES   REMARKS
EVANSVILLE     CLEAR     53  42  66 N7        30.23R
HUNTINGBURG *+ CLEAR     52  39  62 NE8       30.24R

$$

INZ062-063-066-070>080-084-089>092-191000-
SOUTH CENTRAL AND SOUTHEAST INDIANA

CITY           SKY/WX    TMP DP  RH WIND       PRES   REMARKS
BLOOMINGTON    CLEAR     46  35  65 NE7       30.27R

$$




USA.gov is the U.S. government's official web portal to all federal, state and local government web resources and services.